Time,TemperatureF,DewpointF,PressureIn,WindDirection,WindDirectionDegrees,WindSpeedMPH,WindSpeedGustMPH,Humidity,HourlyPrecipIn,Conditions,Clouds,dailyrainin,SoftwareType,DateUTC
2013-08-28 00:11:00,79.5,67.0,29.68,South,190,0.0,1.0,66,0.00,,,0.00,weatherlink.com 1.10,2013-08-28 05:11:00,
2013-08-28 00:26:00,79.2,67.0,29.67,South,190,0.0,2.0,66,0.00,,,0.00,weatherlink.com 1.10,2013-08-28 05:26:00,
2013-08-28 00:41:00,78.6,66.0,29.68,South,190,0.0,1.0,66,0.00,,,0.00,weatherlink.com 1.10,2013-08-28 05:41:00,
2013-08-28 00:56:00,78.2,66.0,29.68,South,190,0.0,0.0,66,0.00,,,0.00,weatherlink.com 1.10,2013-08-28 05:56:00,
2013-08-28 01:11:00,77.7,66.0,29.68,South,190,0.0,1.0,67,0.00,,,0.00,weatherlink.com 1.10,2013-08-28 06:11:00,
2013-08-28 01:26:00,77.4,66.0,29.68,South,190,0.0,1.0,67,0.00,,,0.00,weatherlink.com 1.10,2013-08-28 06:26:00,
2013-08-28 01:41:00,77.0,66.0,29.68,South,190,0.0,1.0,68,0.00,,,0.00,weatherlink.com 1.10,2013-08-28 06:41:00,
2013-08-28 01:56:00,76.5,66.0,29.68,South,190,0.0,1.0,69,0.00,,,0.00,weatherlink.com 1.10,2013-08-28 06:56:00,
2013-08-28 02:11:00,76.1,65.0,29.68,South,190,0.0,1.0,69,0.00,,,0.00,weatherlink.com 1.10,2013-08-28 07:11:00,
2013-08-28 02:26:00,75.6,65.0,29.68,South,190,0.0,1.0,70,0.00,,,0.00,weatherlink.com 1.10,2013-08-28 07:26:00,
2013-08-28 02:41:00,75.3,65.0,29.69,South,190,0.0,1.0,71,0.00,,,0.00,weatherlink.com 1.10,2013-08-28 07:41:00,
2013-08-28 02:56:00,75.0,65.0,29.69,South,190,0.0,1.0,71,0.00,,,0.00,weatherlink.com 1.10,2013-08-28 07:56:00,
2013-08-28 03:11:00,74.7,65.0,29.69,South,190,0.0,1.0,72,0.00,,,0.00,weatherlink.com 1.10,2013-08-28 08:11:00,
2013-08-28 03:26:00,74.0,65.0,29.69,South,190,0.0,0.0,74,0.00,,,0.00,weatherlink.com 1.10,2013-08-28 08:26:00,
2013-08-28 03:41:00,73.3,65.0,29.69,South,190,0.0,0.0,76,0.00,,,0.00,weatherlink.com 1.10,2013-08-28 08:41:00,
2013-08-28 03:56:00,72.6,65.0,29.69,South,190,0.0,0.0,77,0.00,,,0.00,weatherlink.com 1.10,2013-08-28 08:56:00,
2013-08-28 04:11:00,72.2,65.0,29.69,South,190,0.0,0.0,78,0.00,,,0.00,weatherlink.com 1.10,2013-08-28 09:11:00,
2013-08-28 04:26:00,71.6,65.0,29.70,South,190,0.0,0.0,79,0.00,,,0.00,weatherlink.com 1.10,2013-08-28 09:26:00,
2013-08-28 04:41:00,71.3,65.0,29.70,South,190,0.0,0.0,81,0.00,,,0.00,weatherlink.com 1.10,2013-08-28 09:41:00,
2013-08-28 04:56:00,70.8,65.0,29.70,South,190,0.0,0.0,82,0.00,,,0.00,weatherlink.com 1.10,2013-08-28 09:56:00,
2013-08-28 05:11:00,70.7,65.0,29.70,South,190,0.0,0.0,82,0.00,,,0.00,weatherlink.com 1.10,2013-08-28 10:11:00,
2013-08-28 05:26:00,70.6,65.0,29.71,South,190,0.0,0.0,82,0.00,,,0.00,weatherlink.com 1.10,2013-08-28 10:26:00,
2013-08-28 05:41:00,70.3,65.0,29.71,South,190,0.0,0.0,83,0.00,,,0.00,weatherlink.com 1.10,2013-08-28 10:41:00,
2013-08-28 05:56:00,70.4,65.0,29.71,South,190,0.0,0.0,83,0.00,,,0.00,weatherlink.com 1.10,2013-08-28 10:56:00,
2013-08-28 06:11:00,70.6,65.0,29.71,South,190,0.0,0.0,82,0.00,,,0.00,weatherlink.com 1.10,2013-08-28 11:11:00,
2013-08-28 06:27:00,70.8,65.0,29.71,South,190,0.0,0.0,81,0.00,,,0.00,weatherlink.com 1.10,2013-08-28 11:27:00,
2013-08-28 06:41:00,70.8,65.0,29.72,South,190,0.0,0.0,81,0.00,,,0.00,weatherlink.com 1.10,2013-08-28 11:41:00,
2013-08-28 06:56:00,71.0,65.0,29.72,South,190,0.0,1.0,80,0.00,,,0.00,weatherlink.com 1.10,2013-08-28 11:56:00,
2013-08-28 07:11:00,71.2,65.0,29.72,South,190,0.0,0.0,80,0.00,,,0.00,weatherlink.com 1.10,2013-08-28 12:11:00,
2013-08-28 07:26:00,71.4,65.0,29.73,South,190,0.0,1.0,80,0.00,,,0.00,weatherlink.com 1.10,2013-08-28 12:26:00,
2013-08-28 07:41:00,71.6,66.0,29.73,South,190,0.0,0.0,81,0.00,,,0.00,weatherlink.com 1.10,2013-08-28 12:41:00,
2013-08-28 07:56:00,72.0,66.0,29.72,SW,220,0.0,5.0,80,0.00,,,0.00,weatherlink.com 1.10,2013-08-28 12:56:00,
2013-08-28 08:12:00,73.0,66.0,29.73,WSW,238,0.0,4.0,79,0.00,,,0.00,weatherlink.com 1.10,2013-08-28 13:12:00,
2013-08-28 08:27:00,74.1,67.0,29.73,WSW,239,0.0,1.0,78,0.00,,,0.00,weatherlink.com 1.10,2013-08-28 13:27:00,
2013-08-28 08:42:00,75.3,68.0,29.73,SSW,198,0.0,1.0,77,0.00,,,0.00,weatherlink.com 1.10,2013-08-28 13:42:00,
2013-08-28 08:57:00,76.5,68.0,29.73,South,184,1.0,3.0,75,0.00,,,0.00,weatherlink.com 1.10,2013-08-28 13:57:00,
2013-08-28 09:12:00,77.8,69.0,29.73,SW,227,0.0,3.0,73,0.00,,,0.00,weatherlink.com 1.10,2013-08-28 14:12:00,
2013-08-28 09:27:00,78.8,69.0,29.73,WNW,297,0.0,0.0,72,0.00,,,0.00,weatherlink.com 1.10,2013-08-28 14:27:00,
2013-08-28 09:42:00,79.8,70.0,29.73,WNW,302,0.0,1.0,71,0.00,,,0.00,weatherlink.com 1.10,2013-08-28 14:42:00,
2013-08-28 09:57:00,81.1,70.0,29.74,SSW,204,0.0,2.0,68,0.00,,,0.00,weatherlink.com 1.10,2013-08-28 14:57:00,
2013-08-28 10:12:00,82.0,70.0,29.74,South,178,2.0,8.0,67,0.00,,,0.00,weatherlink.com 1.10,2013-08-28 15:12:00,
2013-08-28 10:27:00,82.8,70.0,29.74,SSW,209,0.0,4.0,66,0.00,,,0.00,weatherlink.com 1.10,2013-08-28 15:27:00,
2013-08-28 10:42:00,83.6,72.0,29.74,SSW,192,0.0,4.0,67,0.00,,,0.00,weatherlink.com 1.10,2013-08-28 15:42:00,
2013-08-28 10:57:00,84.5,71.0,29.74,NW,319,0.0,2.0,65,0.00,,,0.00,weatherlink.com 1.10,2013-08-28 15:57:00,
2013-08-28 11:12:00,85.5,71.0,29.75,WNW,296,0.0,3.0,63,0.00,,,0.00,weatherlink.com 1.10,2013-08-28 16:12:00,
2013-08-28 11:27:00,86.9,71.0,29.74,SW,233,1.0,2.0,60,0.00,,,0.00,weatherlink.com 1.10,2013-08-28 16:27:00,
2013-08-28 11:42:00,88.6,73.0,29.74,West,273,0.0,6.0,60,0.00,,,0.00,weatherlink.com 1.10,2013-08-28 16:42:00,
2013-08-28 11:57:00,89.3,73.0,29.74,SSW,213,1.0,7.0,58,0.00,,,0.00,weatherlink.com 1.10,2013-08-28 16:57:00,
2013-08-28 12:12:00,90.9,74.0,29.74,ESE,109,0.0,5.0,57,0.00,,,0.00,weatherlink.com 1.10,2013-08-28 17:12:00,
2013-08-28 12:27:00,91.9,74.0,29.74,SSW,211,0.0,2.0,57,0.00,,,0.00,weatherlink.com 1.10,2013-08-28 17:27:00,
2013-08-28 12:42:00,92.8,74.0,29.74,SW,217,1.0,6.0,54,0.00,,,0.00,weatherlink.com 1.10,2013-08-28 17:42:00,
2013-08-28 12:57:00,94.1,73.0,29.73,SE,142,0.0,5.0,51,0.00,,,0.00,weatherlink.com 1.10,2013-08-28 17:57:00,
2013-08-28 13:12:00,94.1,73.0,29.73,SE,146,0.0,2.0,50,0.00,,,0.00,weatherlink.com 1.10,2013-08-28 18:12:00,
2013-08-28 13:27:00,95.6,71.0,29.73,SSW,209,3.0,4.0,45,0.00,,,0.00,weatherlink.com 1.10,2013-08-28 18:27:00,
2013-08-28 13:42:00,96.1,70.0,29.73,South,171,0.0,3.0,43,0.00,,,0.00,weatherlink.com 1.10,2013-08-28 18:42:00,
2013-08-28 13:57:00,97.4,73.0,29.73,SSW,202,0.0,6.0,46,0.00,,,0.00,weatherlink.com 1.10,2013-08-28 18:57:00,
2013-08-28 14:13:00,98.1,73.0,29.73,South,185,3.0,4.0,44,0.00,,,0.00,weatherlink.com 1.10,2013-08-28 19:13:00,
2013-08-28 14:28:00,97.8,72.0,29.72,SW,217,1.0,5.0,43,0.00,,,0.00,weatherlink.com 1.10,2013-08-28 19:28:00,
2013-08-28 14:43:00,98.4,69.0,29.72,SSW,192,0.0,6.0,38,0.00,,,0.00,weatherlink.com 1.10,2013-08-28 19:43:00,
2013-08-28 14:58:00,99.1,67.0,29.71,South,178,0.0,2.0,35,0.00,,,0.00,weatherlink.com 1.10,2013-08-28 19:58:00,
2013-08-28 15:13:00,99.6,71.0,29.71,SSE,157,1.0,6.0,40,0.00,,,0.00,weatherlink.com 1.10,2013-08-28 20:13:00,
2013-08-28 15:28:00,99.0,70.0,29.71,SW,215,0.0,5.0,39,0.00,,,0.00,weatherlink.com 1.10,2013-08-28 20:28:00,
2013-08-28 15:43:00,99.0,69.0,29.71,SW,216,0.0,4.0,38,0.00,,,0.00,weatherlink.com 1.10,2013-08-28 20:43:00,
2013-08-28 15:58:00,97.5,68.0,29.71,South,175,4.0,4.0,38,0.00,,,0.00,weatherlink.com 1.10,2013-08-28 20:58:00,
2013-08-28 16:13:00,96.9,68.0,29.71,SSE,166,0.0,3.0,39,0.00,,,0.00,weatherlink.com 1.10,2013-08-28 21:13:00,
2013-08-28 16:28:00,97.8,69.0,29.71,WSW,238,1.0,5.0,39,0.00,,,0.00,weatherlink.com 1.10,2013-08-28 21:28:00,
2013-08-28 16:43:00,95.7,69.0,29.71,SSE,156,0.0,1.0,42,0.00,,,0.00,weatherlink.com 1.10,2013-08-28 21:43:00,
2013-08-28 16:58:00,96.0,71.0,29.71,South,184,0.0,1.0,45,0.00,,,0.00,weatherlink.com 1.10,2013-08-28 21:58:00,
2013-08-28 17:13:00,95.3,69.0,29.71,South,190,1.0,4.0,43,0.00,,,0.00,weatherlink.com 1.10,2013-08-28 22:13:00,
2013-08-28 17:28:00,95.0,70.0,29.71,SSW,197,0.0,3.0,44,0.00,,,0.00,weatherlink.com 1.10,2013-08-28 22:28:00,
2013-08-28 17:43:00,95.3,70.0,29.70,South,178,0.0,1.0,44,0.00,,,0.00,weatherlink.com 1.10,2013-08-28 22:43:00,
2013-08-28 17:58:00,96.4,71.0,29.70,South,180,0.0,5.0,44,0.00,,,0.00,weatherlink.com 1.10,2013-08-28 22:58:00,
2013-08-28 18:13:00,95.8,69.0,29.71,SW,229,0.0,5.0,42,0.00,,,0.00,weatherlink.com 1.10,2013-08-28 23:13:00,
2013-08-28 18:28:00,93.0,69.0,29.71,SE,146,0.0,4.0,46,0.00,,,0.00,weatherlink.com 1.10,2013-08-28 23:28:00,
2013-08-28 18:43:00,92.6,69.0,29.71,SSW,213,1.0,6.0,46,0.00,,,0.00,weatherlink.com 1.10,2013-08-28 23:43:00,
2013-08-28 18:58:00,91.0,69.0,29.71,SSE,152,0.0,2.0,49,0.00,,,0.00,weatherlink.com 1.10,2013-08-28 23:58:00,
2013-08-28 19:13:00,89.7,69.0,29.71,SSE,154,0.0,3.0,50,0.00,,,0.00,weatherlink.com 1.10,2013-08-29 00:13:00,
2013-08-28 19:28:00,88.6,68.0,29.71,SE,134,0.0,3.0,51,0.00,,,0.00,weatherlink.com 1.10,2013-08-29 00:28:00,
2013-08-28 19:43:00,87.7,68.0,29.72,SSE,165,0.0,5.0,52,0.00,,,0.00,weatherlink.com 1.10,2013-08-29 00:43:00,
2013-08-28 19:58:00,87.0,68.0,29.72,SSE,151,0.0,4.0,54,0.00,,,0.00,weatherlink.com 1.10,2013-08-29 00:58:00,
2013-08-28 20:13:00,86.2,69.0,29.72,SSE,150,0.0,1.0,56,0.00,,,0.00,weatherlink.com 1.10,2013-08-29 01:13:00,
2013-08-28 20:28:00,85.3,69.0,29.72,SSE,150,0.0,1.0,58,0.00,,,0.00,weatherlink.com 1.10,2013-08-29 01:28:00,
2013-08-28 20:43:00,84.7,69.0,29.73,South,191,0.0,4.0,60,0.00,,,0.00,weatherlink.com 1.10,2013-08-29 01:43:00,
2013-08-28 20:58:00,83.9,69.0,29.73,SSE,158,0.0,2.0,62,0.00,,,0.00,weatherlink.com 1.10,2013-08-29 01:58:00,
2013-08-28 21:13:00,83.2,70.0,29.73,SSW,193,0.0,1.0,64,0.00,,,0.00,weatherlink.com 1.10,2013-08-29 02:13:00,
2013-08-28 21:28:00,82.3,70.0,29.74,South,184,0.0,0.0,66,0.00,,,0.00,weatherlink.com 1.10,2013-08-29 02:28:00,
2013-08-28 21:43:00,81.5,70.0,29.74,South,184,0.0,1.0,67,0.00,,,0.00,weatherlink.com 1.10,2013-08-29 02:43:00,
2013-08-28 21:58:00,80.9,69.0,29.74,South,184,0.0,0.0,68,0.00,,,0.00,weatherlink.com 1.10,2013-08-29 02:58:00,
2013-08-28 22:13:00,80.5,70.0,29.74,South,184,0.0,1.0,70,0.00,,,0.00,weatherlink.com 1.10,2013-08-29 03:13:00,
2013-08-28 22:43:00,79.2,69.0,29.74,South,184,0.0,0.0,72,0.00,,,0.00,weatherlink.com 1.10,2013-08-29 03:43:00,
2013-08-28 22:58:00,78.6,70.0,29.74,South,184,0.0,0.0,74,0.00,,,0.00,weatherlink.com 1.10,2013-08-29 03:58:00,
2013-08-28 23:13:00,77.9,69.0,29.74,South,184,0.0,0.0,75,0.00,,,0.00,weatherlink.com 1.10,2013-08-29 04:13:00,
2013-08-28 23:28:00,77.2,69.0,29.74,South,184,0.0,0.0,76,0.00,,,0.00,weatherlink.com 1.10,2013-08-29 04:28:00,
2013-08-28 23:43:00,76.5,69.0,29.74,South,184,0.0,0.0,77,0.00,,,0.00,weatherlink.com 1.10,2013-08-29 04:43:00,
2013-08-28 23:58:00,76.0,69.0,29.74,South,184,0.0,0.0,78,0.00,,,0.00,weatherlink.com 1.10,2013-08-29 04:58:00,